User: anonymous
Location: NJAA Observatory
(40.6819°N, 74.8979°W)
Time: 21:33:04
(UTC-04:00)
Language:

Iridium 84 - Orbit

View from above orbital plane
View from above orbital plane
View from above satellite
View from above satellite

Ground track
Ground track

The orbit data is extracted from the following two-line orbital elements,

1 25530U 98066D   14205.19838522  .00000129  00000-0  38939-4 0  7091
2 25530 086.3931 072.7048 0002197 099.9578 260.1866 14.34217010825211
Epoch (UTC): 24 July 2014 04:45:40
Eccentricity: 0.0002197
inclination: 86.3931°
perigee height: 776 km
apogee height: 779 km
right ascension of ascending node: 72.7048°
argument of perigee: 99.9578°
revolutions per day: 14.34217010
mean anomaly at epoch: 260.1866°
orbit number at epoch: 82521

The dashed part of the orbit path shows where the satellite is in the earth's shadow,  

DLR